Location: B?lite?ti
(46.2833°N, 22.7333°E)
Time: 04:06:19
(UTC+00:00)

NOSS 2-1 (C) - Pass Details

Date: 24 January 2021
Orbit: 432 x 1770 km, 63.3° (Epoch: 24 February)

Event Time Altitude Azimuth Distance (km) Brightness Sun altitude
Rises 16:43:49 0° 206° (SSW) 2,481 7.3 -14.1°
Reaches altitude 10° 16:45:58 10° 201° (SSW) 1,554 6.1 -14.4°
Maximum altitude 16:49:12 52° 125° (SE) 548 3.0 -15.0°
Enters shadow 16:50:23 32° 66° (ENE) 768 3.5 -15.2°
